owner,sensor,date,latitude,longitude,air_temperature,qcFlag 
WAVCIS,ioos:station:WAVCIS:CSI15:1,2009-03-01T00:00:00Z,28.8332,-90.8320,18.06,11111222 
WAVCIS,ioos:station:WAVCIS:CSI15:1,2009-03-01T01:00:00Z,28.8332,-90.8320,17.16,11111222 
WAVCIS,ioos:station:WAVCIS:CSI15:1,2009-03-01T02:00:00Z,28.8332,-90.8320,16.47,11111222 
WAVCIS,ioos:station:WAVCIS:CSI15:1,2009-03-01T03:00:00Z,28.8332,-90.8320,15.57,11111222 
WAVCIS,ioos:station:WAVCIS:CSI15:1,2009-03-01T04:00:00Z,28.8332,-90.8320,15.32,11111222 
WAVCIS,ioos:station:WAVCIS:CSI15:1,2009-03-01T05:00:00Z,28.8332,-90.8320,14.88,11111222 
WAVCIS,ioos:station:WAVCIS:CSI15:1,2009-03-01T06:00:00Z,28.8332,-90.8320,14.09,11111222 
WAVCIS,ioos:station:WAVCIS:CSI15:1,2009-03-01T07:00:00Z,28.8332,-90.8320,12.8,11111222 
WAVCIS,ioos:station:WAVCIS:CSI15:1,2009-03-01T08:00:00Z,28.8332,-90.8320,12.16,11111222 
WAVCIS,ioos:station:WAVCIS:CSI15:1,2009-03-01T09:00:00Z,28.8332,-90.8320,11.03,11111222 
WAVCIS,ioos:station:WAVCIS:CSI15:1,2009-03-01T10:00:00Z,28.8332,-90.8320,10.12,11111222 
WAVCIS,ioos:station:WAVCIS:CSI15:1,2009-03-01T11:00:00Z,28.8332,-90.8320,9.23,11111222 
WAVCIS,ioos:station:WAVCIS:CSI15:1,2009-03-01T12:00:00Z,28.8332,-90.8320,8.29,11111222 
WAVCIS,ioos:station:WAVCIS:CSI15:1,2009-03-01T13:00:00Z,28.8332,-90.8320,7.72,11111222 
WAVCIS,ioos:station:WAVCIS:CSI15:1,2009-03-01T14:00:00Z,28.8332,-90.8320,7.41,11111222 
WAVCIS,ioos:station:WAVCIS:CSI15:1,2009-03-01T15:00:00Z,28.8332,-90.8320,6.977,11111222 
WAVCIS,ioos:station:WAVCIS:CSI15:1,2009-03-01T16:00:00Z,28.8332,-90.8320,7.55,11111222 
WAVCIS,ioos:station:WAVCIS:CSI15:1,2009-03-01T17:00:00Z,28.8332,-90.8320,8.2,11111222 
WAVCIS,ioos:station:WAVCIS:CSI15:1,2009-03-01T18:00:00Z,28.8332,-90.8320,9.19,11111222 
WAVCIS,ioos:station:WAVCIS:CSI15:1,2009-03-01T19:00:00Z,28.8332,-90.8320,10.47,11111222 
WAVCIS,ioos:station:WAVCIS:CSI15:1,2009-03-01T20:00:00Z,28.8332,-90.8320,12.02,11111222 
WAVCIS,ioos:station:WAVCIS:CSI15:1,2009-03-01T21:00:00Z,28.8332,-90.8320,12.96,11111222 
WAVCIS,ioos:station:WAVCIS:CSI15:1,2009-03-01T22:00:00Z,28.8332,-90.8320,13.84,11111222 
WAVCIS,ioos:station:WAVCIS:CSI15:1,2009-03-01T23:00:00Z,28.8332,-90.8320,14.34,11111222 
WAVCIS,ioos:station:WAVCIS:CSI15:1,2009-03-02T00:00:00Z,28.8332,-90.8320,14.8,11111222 
WAVCIS,ioos:station:WAVCIS:CSI15:1,2009-03-02T01:00:00Z,28.8332,-90.8320,14.92,11111222 
WAVCIS,ioos:station:WAVCIS:CSI15:1,2009-03-02T02:00:00Z,28.8332,-90.8320,14.8,11111222 
WAVCIS,ioos:station:WAVCIS:CSI15:1,2009-03-02T03:00:00Z,28.8332,-90.8320,14.61,11111222 
WAVCIS,ioos:station:WAVCIS:CSI15:1,2009-03-02T04:00:00Z,28.8332,-90.8320,14.37,11111222 
WAVCIS,ioos:station:WAVCIS:CSI15:1,2009-03-02T05:00:00Z,28.8332,-90.8320,13.89,11111222 
WAVCIS,ioos:station:WAVCIS:CSI15:1,2009-03-02T06:00:00Z,28.8332,-90.8320,13.56,11111222 
WAVCIS,ioos:station:WAVCIS:CSI15:1,2009-03-02T07:00:00Z,28.8332,-90.8320,13.55,11111222 
WAVCIS,ioos:station:WAVCIS:CSI15:1,2009-03-02T08:00:00Z,28.8332,-90.8320,13.04,11111222 
WAVCIS,ioos:station:WAVCIS:CSI15:1,2009-03-02T09:00:00Z,28.8332,-90.8320,12.16,11111222 
WAVCIS,ioos:station:WAVCIS:CSI15:1,2009-03-02T10:00:00Z,28.8332,-90.8320,11.5,11111222 
WAVCIS,ioos:station:WAVCIS:CSI15:1,2009-03-02T11:00:00Z,28.8332,-90.8320,11.21,11111222 
WAVCIS,ioos:station:WAVCIS:CSI15:1,2009-03-02T12:00:00Z,28.8332,-90.8320,10.68,11111222 
WAVCIS,ioos:station:WAVCIS:CSI15:1,2009-03-02T13:00:00Z,28.8332,-90.8320,10.38,11111222 
WAVCIS,ioos:station:WAVCIS:CSI15:1,2009-03-02T14:00:00Z,28.8332,-90.8320,10.03,11111222 
WAVCIS,ioos:station:WAVCIS:CSI15:1,2009-03-02T15:00:00Z,28.8332,-90.8320,10.3,11111222 
WAVCIS,ioos:station:WAVCIS:CSI15:1,2009-03-02T16:00:00Z,28.8332,-90.8320,10.63,11111222 
WAVCIS,ioos:station:WAVCIS:CSI15:1,2009-03-02T17:00:00Z,28.8332,-90.8320,10.9,11111222 
WAVCIS,ioos:station:WAVCIS:CSI15:1,2009-03-02T18:00:00Z,28.8332,-90.8320,11.69,11111222 
WAVCIS,ioos:station:WAVCIS:CSI15:1,2009-03-02T19:00:00Z,28.8332,-90.8320,14.05,11111222 
WAVCIS,ioos:station:WAVCIS:CSI15:1,2009-03-02T20:00:00Z,28.8332,-90.8320,14.44,11111222 
WAVCIS,ioos:station:WAVCIS:CSI15:1,2009-03-02T21:00:00Z,28.8332,-90.8320,13.56,11111222 
WAVCIS,ioos:station:WAVCIS:CSI15:1,2009-03-02T22:00:00Z,28.8332,-90.8320,13.74,11111222 
WAVCIS,ioos:station:WAVCIS:CSI15:1,2009-03-02T23:00:00Z,28.8332,-90.8320,14.87,11111222 
WAVCIS,ioos:station:WAVCIS:CSI15:1,2009-03-03T00:00:00Z,28.8332,-90.8320,14.52,11111222 
WAVCIS,ioos:station:WAVCIS:CSI15:1,2009-03-03T01:00:00Z,28.8332,-90.8320,14.84,11111222 
WAVCIS,ioos:station:WAVCIS:CSI15:1,2009-03-03T02:00:00Z,28.8332,-90.8320,15.12,11111222 
WAVCIS,ioos:station:WAVCIS:CSI15:1,2009-03-03T03:00:00Z,28.8332,-90.8320,15.26,11111222 
WAVCIS,ioos:station:WAVCIS:CSI15:1,2009-03-03T04:00:00Z,28.8332,-90.8320,15.43,11111222 
WAVCIS,ioos:station:WAVCIS:CSI15:1,2009-03-03T05:00:00Z,28.8332,-90.8320,15.56,11111222 
WAVCIS,ioos:station:WAVCIS:CSI15:1,2009-03-03T06:00:00Z,28.8332,-90.8320,14.97,11111222 
WAVCIS,ioos:station:WAVCIS:CSI15:1,2009-03-03T07:00:00Z,28.8332,-90.8320,14.52,11111222 
WAVCIS,ioos:station:WAVCIS:CSI15:1,2009-03-03T08:00:00Z,28.8332,-90.8320,14.15,11111222 
WAVCIS,ioos:station:WAVCIS:CSI15:1,2009-03-03T09:00:00Z,28.8332,-90.8320,14.9,11111222 
WAVCIS,ioos:station:WAVCIS:CSI15:1,2009-03-03T10:00:00Z,28.8332,-90.8320,14.19,11111222 
WAVCIS,ioos:station:WAVCIS:CSI15:1,2009-03-03T11:00:00Z,28.8332,-90.8320,13.84,11111222 
WAVCIS,ioos:station:WAVCIS:CSI15:1,2009-03-03T12:00:00Z,28.8332,-90.8320,13.75,11111222 
WAVCIS,ioos:station:WAVCIS:CSI15:1,2009-03-03T13:00:00Z,28.8332,-90.8320,13.66,11111222 
WAVCIS,ioos:station:WAVCIS:CSI15:1,2009-03-03T14:00:00Z,28.8332,-90.8320,13.97,11111222 
WAVCIS,ioos:station:WAVCIS:CSI15:1,2009-03-03T15:00:00Z,28.8332,-90.8320,14.12,11111222 
WAVCIS,ioos:station:WAVCIS:CSI15:1,2009-03-03T16:00:00Z,28.8332,-90.8320,14.48,11111222 
WAVCIS,ioos:station:WAVCIS:CSI15:1,2009-03-03T17:00:00Z,28.8332,-90.8320,15.16,11111222 
WAVCIS,ioos:station:WAVCIS:CSI15:1,2009-03-03T18:00:00Z,28.8332,-90.8320,15.68,11111222 
WAVCIS,ioos:station:WAVCIS:CSI15:1,2009-03-03T19:00:00Z,28.8332,-90.8320,15.89,11111222 
WAVCIS,ioos:station:WAVCIS:CSI15:1,2009-03-03T20:00:00Z,28.8332,-90.8320,16.07,11111222 
WAVCIS,ioos:station:WAVCIS:CSI15:1,2009-03-03T21:00:00Z,28.8332,-90.8320,16.09,11111222 
WAVCIS,ioos:station:WAVCIS:CSI15:1,2009-03-03T22:00:00Z,28.8332,-90.8320,16.24,11111222 
WAVCIS,ioos:station:WAVCIS:CSI15:1,2009-03-03T23:00:00Z,28.8332,-90.8320,16.25,11111222 
WAVCIS,ioos:station:WAVCIS:CSI15:1,2009-03-04T00:00:00Z,28.8332,-90.8320,16.18,11111222 
WAVCIS,ioos:station:WAVCIS:CSI15:1,2009-03-04T01:00:00Z,28.8332,-90.8320,16.38,11111222 
WAVCIS,ioos:station:WAVCIS:CSI15:1,2009-03-04T02:00:00Z,28.8332,-90.8320,16.52,11111222 
WAVCIS,ioos:station:WAVCIS:CSI15:1,2009-03-04T03:00:00Z,28.8332,-90.8320,16.79,11111222 
WAVCIS,ioos:station:WAVCIS:CSI15:1,2009-03-04T04:00:00Z,28.8332,-90.8320,17.02,11111222 
WAVCIS,ioos:station:WAVCIS:CSI15:1,2009-03-04T05:00:00Z,28.8332,-90.8320,17.27,11111222 
WAVCIS,ioos:station:WAVCIS:CSI15:1,2009-03-04T06:00:00Z,28.8332,-90.8320,18.19,11111222 
WAVCIS,ioos:station:WAVCIS:CSI15:1,2009-03-04T07:00:00Z,28.8332,-90.8320,19.5,11111222 
WAVCIS,ioos:station:WAVCIS:CSI15:1,2009-03-04T08:00:00Z,28.8332,-90.8320,19.13,11111222 
WAVCIS,ioos:station:WAVCIS:CSI15:1,2009-03-04T09:00:00Z,28.8332,-90.8320,19.37,11111222 
WAVCIS,ioos:station:WAVCIS:CSI15:1,2009-03-04T10:00:00Z,28.8332,-90.8320,19.89,11111222 
WAVCIS,ioos:station:WAVCIS:CSI15:1,2009-03-04T11:00:00Z,28.8332,-90.8320,20.66,11111222 
WAVCIS,ioos:station:WAVCIS:CSI15:1,2009-03-04T12:00:00Z,28.8332,-90.8320,21.62,11111222 
WAVCIS,ioos:station:WAVCIS:CSI15:1,2009-03-04T13:00:00Z,28.8332,-90.8320,22.2,11111222 
WAVCIS,ioos:station:WAVCIS:CSI15:1,2009-03-04T14:00:00Z,28.8332,-90.8320,24.57,11111222 
WAVCIS,ioos:station:WAVCIS:CSI15:1,2009-03-04T15:00:00Z,28.8332,-90.8320,23.31,11111222 
WAVCIS,ioos:station:WAVCIS:CSI15:1,2009-03-04T16:00:00Z,28.8332,-90.8320,22.65,11111222 
WAVCIS,ioos:station:WAVCIS:CSI15:1,2009-03-04T17:00:00Z,28.8332,-90.8320,22.96,11111222 
WAVCIS,ioos:station:WAVCIS:CSI15:1,2009-03-04T18:00:00Z,28.8332,-90.8320,22.53,11111222 
WAVCIS,ioos:station:WAVCIS:CSI15:1,2009-03-04T19:00:00Z,28.8332,-90.8320,22.92,11111222 
WAVCIS,ioos:station:WAVCIS:CSI15:1,2009-03-04T20:00:00Z,28.8332,-90.8320,22.55,11111222 
WAVCIS,ioos:station:WAVCIS:CSI15:1,2009-03-04T21:00:00Z,28.8332,-90.8320,22.66,11111222 
WAVCIS,ioos:station:WAVCIS:CSI15:1,2009-03-04T22:00:00Z,28.8332,-90.8320,22.65,11111222 
WAVCIS,ioos:station:WAVCIS:CSI15:1,2009-03-04T23:00:00Z,28.8332,-90.8320,23.49,11111222 
WAVCIS,ioos:station:WAVCIS:CSI15:1,2009-03-05T00:00:00Z,28.8332,-90.8320,22.9,11111222 
WAVCIS,ioos:station:WAVCIS:CSI15:1,2009-03-05T01:00:00Z,28.8332,-90.8320,22.84,11111222 
WAVCIS,ioos:station:WAVCIS:CSI15:1,2009-03-05T02:00:00Z,28.8332,-90.8320,23.27,11111222 
WAVCIS,ioos:station:WAVCIS:CSI15:1,2009-03-05T03:00:00Z,28.8332,-90.8320,22.7,11111222 
WAVCIS,ioos:station:WAVCIS:CSI15:1,2009-03-05T04:00:00Z,28.8332,-90.8320,22.57,11111222 
WAVCIS,ioos:station:WAVCIS:CSI15:1,2009-03-05T05:00:00Z,28.8332,-90.8320,22.5,11111222 
WAVCIS,ioos:station:WAVCIS:CSI15:1,2009-03-05T06:00:00Z,28.8332,-90.8320,22.41,11111222 
WAVCIS,ioos:station:WAVCIS:CSI15:1,2009-03-05T07:00:00Z,28.8332,-90.8320,22.22,11111222 
WAVCIS,ioos:station:WAVCIS:CSI15:1,2009-03-05T08:00:00Z,28.8332,-90.8320,22.26,11111222 
WAVCIS,ioos:station:WAVCIS:CSI15:1,2009-03-05T09:00:00Z,28.8332,-90.8320,22.29,11111222 
WAVCIS,ioos:station:WAVCIS:CSI15:1,2009-03-05T10:00:00Z,28.8332,-90.8320,22.41,11111222 
WAVCIS,ioos:station:WAVCIS:CSI15:1,2009-03-05T11:00:00Z,28.8332,-90.8320,22.56,11111222 
WAVCIS,ioos:station:WAVCIS:CSI15:1,2009-03-05T12:00:00Z,28.8332,-90.8320,23.87,11111222 
WAVCIS,ioos:station:WAVCIS:CSI15:1,2009-03-05T13:00:00Z,28.8332,-90.8320,24.6,11111222 
WAVCIS,ioos:station:WAVCIS:CSI15:1,2009-03-05T14:00:00Z,28.8332,-90.8320,23.45,11111222 
WAVCIS,ioos:station:WAVCIS:CSI15:1,2009-03-05T15:00:00Z,28.8332,-90.8320,23.26,11111222 
WAVCIS,ioos:station:WAVCIS:CSI15:1,2009-03-05T16:00:00Z,28.8332,-90.8320,23.35,11111222 
WAVCIS,ioos:station:WAVCIS:CSI15:1,2009-03-05T17:00:00Z,28.8332,-90.8320,23.12,11111222 
WAVCIS,ioos:station:WAVCIS:CSI15:1,2009-03-05T18:00:00Z,28.8332,-90.8320,23.05,11111222 
WAVCIS,ioos:station:WAVCIS:CSI15:1,2009-03-05T19:00:00Z,28.8332,-90.8320,23.1,11111222 
WAVCIS,ioos:station:WAVCIS:CSI15:1,2009-03-05T20:00:00Z,28.8332,-90.8320,23.12,11111222 
WAVCIS,ioos:station:WAVCIS:CSI15:1,2009-03-05T21:00:00Z,28.8332,-90.8320,23.17,11111222 
WAVCIS,ioos:station:WAVCIS:CSI15:1,2009-03-05T22:00:00Z,28.8332,-90.8320,23.16,11111222 
WAVCIS,ioos:station:WAVCIS:CSI15:1,2009-03-05T23:00:00Z,28.8332,-90.8320,23.22,11111222 
WAVCIS,ioos:station:WAVCIS:CSI15:1,2009-03-06T00:00:00Z,28.8332,-90.8320,23.22,11111222 
WAVCIS,ioos:station:WAVCIS:CSI15:1,2009-03-06T01:00:00Z,28.8332,-90.8320,24.34,11111222 
WAVCIS,ioos:station:WAVCIS:CSI15:1,2009-03-06T02:00:00Z,28.8332,-90.8320,24.75,11111222 
WAVCIS,ioos:station:WAVCIS:CSI15:1,2009-03-06T03:00:00Z,28.8332,-90.8320,23.57,11111222 
WAVCIS,ioos:station:WAVCIS:CSI15:1,2009-03-06T04:00:00Z,28.8332,-90.8320,23.21,11111222 
WAVCIS,ioos:station:WAVCIS:CSI15:1,2009-03-06T05:00:00Z,28.8332,-90.8320,22.99,11111222 
WAVCIS,ioos:station:WAVCIS:CSI15:1,2009-03-06T06:00:00Z,28.8332,-90.8320,23.06,11111222 
WAVCIS,ioos:station:WAVCIS:CSI15:1,2009-03-06T07:00:00Z,28.8332,-90.8320,23.01,11111222 
WAVCIS,ioos:station:WAVCIS:CSI15:1,2009-03-06T08:00:00Z,28.8332,-90.8320,22.97,11111222 
WAVCIS,ioos:station:WAVCIS:CSI15:1,2009-03-06T09:00:00Z,28.8332,-90.8320,23.17,11111222 
WAVCIS,ioos:station:WAVCIS:CSI15:1,2009-03-06T10:00:00Z,28.8332,-90.8320,23.14,11111222 
WAVCIS,ioos:station:WAVCIS:CSI15:1,2009-03-06T11:00:00Z,28.8332,-90.8320,23.33,11111222 
WAVCIS,ioos:station:WAVCIS:CSI15:1,2009-03-06T12:00:00Z,28.8332,-90.8320,23.66,11111222 
WAVCIS,ioos:station:WAVCIS:CSI15:1,2009-03-06T13:00:00Z,28.8332,-90.8320,24.4,11111222 
WAVCIS,ioos:station:WAVCIS:CSI15:1,2009-03-06T14:00:00Z,28.8332,-90.8320,24.55,11111222 
WAVCIS,ioos:station:WAVCIS:CSI15:1,2009-03-06T15:00:00Z,28.8332,-90.8320,24.38,11111222 
WAVCIS,ioos:station:WAVCIS:CSI15:1,2009-03-06T16:00:00Z,28.8332,-90.8320,24.77,11111222 
WAVCIS,ioos:station:WAVCIS:CSI15:1,2009-03-06T17:00:00Z,28.8332,-90.8320,24.06,11111222 
WAVCIS,ioos:station:WAVCIS:CSI15:1,2009-03-06T18:00:00Z,28.8332,-90.8320,23.95,11111222 
WAVCIS,ioos:station:WAVCIS:CSI15:1,2009-03-06T19:00:00Z,28.8332,-90.8320,24.24,11111222 
WAVCIS,ioos:station:WAVCIS:CSI15:1,2009-03-06T20:00:00Z,28.8332,-90.8320,24.53,11111222 
WAVCIS,ioos:station:WAVCIS:CSI15:1,2009-03-06T21:00:00Z,28.8332,-90.8320,24.52,11111222 
WAVCIS,ioos:station:WAVCIS:CSI15:1,2009-03-06T22:00:00Z,28.8332,-90.8320,24.4,11111222 
WAVCIS,ioos:station:WAVCIS:CSI15:1,2009-03-06T23:00:00Z,28.8332,-90.8320,24.69,11111222 
WAVCIS,ioos:station:WAVCIS:CSI15:1,2009-03-07T00:00:00Z,28.8332,-90.8320,24.04,11111222 
WAVCIS,ioos:station:WAVCIS:CSI15:1,2009-03-07T01:00:00Z,28.8332,-90.8320,23.95,11111222 
WAVCIS,ioos:station:WAVCIS:CSI15:1,2009-03-07T02:00:00Z,28.8332,-90.8320,23.91,11111222 
WAVCIS,ioos:station:WAVCIS:CSI15:1,2009-03-07T03:00:00Z,28.8332,-90.8320,23.77,11111222 
WAVCIS,ioos:station:WAVCIS:CSI15:1,2009-03-07T04:00:00Z,28.8332,-90.8320,23.78,11111222 
WAVCIS,ioos:station:WAVCIS:CSI15:1,2009-03-07T05:00:00Z,28.8332,-90.8320,24.01,11111222 
WAVCIS,ioos:station:WAVCIS:CSI15:1,2009-03-07T06:00:00Z,28.8332,-90.8320,24.06,11111222 
WAVCIS,ioos:station:WAVCIS:CSI15:1,2009-03-07T07:00:00Z,28.8332,-90.8320,23.97,11111222 
WAVCIS,ioos:station:WAVCIS:CSI15:1,2009-03-07T21:00:00Z,28.8332,-90.8320,25.51,11111222 
WAVCIS,ioos:station:WAVCIS:CSI15:1,2009-03-07T22:00:00Z,28.8332,-90.8320,25.72,11111222 
WAVCIS,ioos:station:WAVCIS:CSI15:1,2009-03-07T23:00:00Z,28.8332,-90.8320,25.03,11111222 
WAVCIS,ioos:station:WAVCIS:CSI15:1,2009-03-08T00:00:00Z,28.8332,-90.8320,24.79,11111222 
WAVCIS,ioos:station:WAVCIS:CSI15:1,2009-03-08T01:00:00Z,28.8332,-90.8320,24.66,11111222 
WAVCIS,ioos:station:WAVCIS:CSI15:1,2009-03-08T02:00:00Z,28.8332,-90.8320,24.89,11111222 
WAVCIS,ioos:station:WAVCIS:CSI15:1,2009-03-08T03:00:00Z,28.8332,-90.8320,24.2,11111222 
WAVCIS,ioos:station:WAVCIS:CSI15:1,2009-03-08T04:00:00Z,28.8332,-90.8320,24.13,11111222 
WAVCIS,ioos:station:WAVCIS:CSI15:1,2009-03-08T05:00:00Z,28.8332,-90.8320,24.38,11111222 
WAVCIS,ioos:station:WAVCIS:CSI15:1,2009-03-08T06:00:00Z,28.8332,-90.8320,24.31,11111222 
WAVCIS,ioos:station:WAVCIS:CSI15:1,2009-03-08T07:00:00Z,28.8332,-90.8320,24.16,11111222 
WAVCIS,ioos:station:WAVCIS:CSI15:1,2009-03-08T08:00:00Z,28.8332,-90.8320,24.29,11111222 
WAVCIS,ioos:station:WAVCIS:CSI15:1,2009-03-08T09:00:00Z,28.8332,-90.8320,24.36,11111222 
WAVCIS,ioos:station:WAVCIS:CSI15:1,2009-03-08T10:00:00Z,28.8332,-90.8320,24.26,11111222 
WAVCIS,ioos:station:WAVCIS:CSI15:1,2009-03-08T11:00:00Z,28.8332,-90.8320,24.11,11111222 
WAVCIS,ioos:station:WAVCIS:CSI15:1,2009-03-08T12:00:00Z,28.8332,-90.8320,24.24,11111222 
WAVCIS,ioos:station:WAVCIS:CSI15:1,2009-03-08T13:00:00Z,28.8332,-90.8320,24.28,11111222 
WAVCIS,ioos:station:WAVCIS:CSI15:1,2009-03-08T14:00:00Z,28.8332,-90.8320,24.99,11111222 
WAVCIS,ioos:station:WAVCIS:CSI15:1,2009-03-08T15:00:00Z,28.8332,-90.8320,25.09,11111222 
WAVCIS,ioos:station:WAVCIS:CSI15:1,2009-03-08T16:00:00Z,28.8332,-90.8320,25.39,11111222 
WAVCIS,ioos:station:WAVCIS:CSI15:1,2009-03-08T17:00:00Z,28.8332,-90.8320,25.97,11111222 
WAVCIS,ioos:station:WAVCIS:CSI15:1,2009-03-08T18:00:00Z,28.8332,-90.8320,26.87,11111222 
WAVCIS,ioos:station:WAVCIS:CSI15:1,2009-03-08T19:00:00Z,28.8332,-90.8320,28.06,11111222 
WAVCIS,ioos:station:WAVCIS:CSI15:1,2009-03-08T20:00:00Z,28.8332,-90.8320,27.07,11111222 
WAVCIS,ioos:station:WAVCIS:CSI15:1,2009-03-08T21:00:00Z,28.8332,-90.8320,26.94,11111222 
WAVCIS,ioos:station:WAVCIS:CSI15:1,2009-03-08T22:00:00Z,28.8332,-90.8320,26.86,11111222 
WAVCIS,ioos:station:WAVCIS:CSI15:1,2009-03-08T23:00:00Z,28.8332,-90.8320,25.93,11111222 
WAVCIS,ioos:station:WAVCIS:CSI15:1,2009-03-09T00:00:00Z,28.8332,-90.8320,25.73,11111222 
WAVCIS,ioos:station:WAVCIS:CSI15:1,2009-03-09T01:00:00Z,28.8332,-90.8320,25.46,11111222 
WAVCIS,ioos:station:WAVCIS:CSI15:1,2009-03-09T02:00:00Z,28.8332,-90.8320,25.27,11111222 
WAVCIS,ioos:station:WAVCIS:CSI15:1,2009-03-09T03:00:00Z,28.8332,-90.8320,25.26,11111222 
WAVCIS,ioos:station:WAVCIS:CSI15:1,2009-03-09T04:00:00Z,28.8332,-90.8320,25.14,11111222 
WAVCIS,ioos:station:WAVCIS:CSI15:1,2009-03-09T05:00:00Z,28.8332,-90.8320,24.87,11111222 
WAVCIS,ioos:station:WAVCIS:CSI15:1,2009-03-09T06:00:00Z,28.8332,-90.8320,24.66,11111222 
WAVCIS,ioos:station:WAVCIS:CSI15:1,2009-03-09T07:00:00Z,28.8332,-90.8320,24.78,11111222 
WAVCIS,ioos:station:WAVCIS:CSI15:1,2009-03-09T08:00:00Z,28.8332,-90.8320,24.66,11111222 
WAVCIS,ioos:station:WAVCIS:CSI15:1,2009-03-09T09:00:00Z,28.8332,-90.8320,24.57,11111222 
WAVCIS,ioos:station:WAVCIS:CSI15:1,2009-03-09T10:00:00Z,28.8332,-90.8320,24.33,11111222 
WAVCIS,ioos:station:WAVCIS:CSI15:1,2009-03-09T11:00:00Z,28.8332,-90.8320,24.49,11111222 
WAVCIS,ioos:station:WAVCIS:CSI15:1,2009-03-09T12:00:00Z,28.8332,-90.8320,26.02,11111222 
WAVCIS,ioos:station:WAVCIS:CSI15:1,2009-03-09T13:00:00Z,28.8332,-90.8320,25.96,11111222 
WAVCIS,ioos:station:WAVCIS:CSI15:1,2009-03-09T14:00:00Z,28.8332,-90.8320,25.85,11111222 
WAVCIS,ioos:station:WAVCIS:CSI15:1,2009-03-09T15:00:00Z,28.8332,-90.8320,25.09,11111222 
WAVCIS,ioos:station:WAVCIS:CSI15:1,2009-03-09T16:00:00Z,28.8332,-90.8320,25.13,11111222 
WAVCIS,ioos:station:WAVCIS:CSI15:1,2009-03-09T17:00:00Z,28.8332,-90.8320,24.94,11111222 
WAVCIS,ioos:station:WAVCIS:CSI15:1,2009-03-09T18:00:00Z,28.8332,-90.8320,24.75,11111222 
WAVCIS,ioos:station:WAVCIS:CSI15:1,2009-03-09T19:00:00Z,28.8332,-90.8320,25.21,11111222 
WAVCIS,ioos:station:WAVCIS:CSI15:1,2009-03-09T20:00:00Z,28.8332,-90.8320,24.96,11111222 
WAVCIS,ioos:station:WAVCIS:CSI15:1,2009-03-09T21:00:00Z,28.8332,-90.8320,24.96,11111222 
WAVCIS,ioos:station:WAVCIS:CSI15:1,2009-03-09T22:00:00Z,28.8332,-90.8320,25.04,11111222 
WAVCIS,ioos:station:WAVCIS:CSI15:1,2009-03-09T23:00:00Z,28.8332,-90.8320,25.08,11111222 
WAVCIS,ioos:station:WAVCIS:CSI15:1,2009-03-10T00:00:00Z,28.8332,-90.8320,24.53,11111222 
WAVCIS,ioos:station:WAVCIS:CSI15:1,2009-03-10T01:00:00Z,28.8332,-90.8320,24.48,11111222 
WAVCIS,ioos:station:WAVCIS:CSI15:1,2009-03-10T02:00:00Z,28.8332,-90.8320,24.4,11111222 
WAVCIS,ioos:station:WAVCIS:CSI15:1,2009-03-10T03:00:00Z,28.8332,-90.8320,24.44,11111222 
WAVCIS,ioos:station:WAVCIS:CSI15:1,2009-03-10T04:00:00Z,28.8332,-90.8320,24.62,11111222 
WAVCIS,ioos:station:WAVCIS:CSI15:1,2009-03-10T05:00:00Z,28.8332,-90.8320,24.79,11111222 
WAVCIS,ioos:station:WAVCIS:CSI15:1,2009-03-10T06:00:00Z,28.8332,-90.8320,24.75,11111222 
WAVCIS,ioos:station:WAVCIS:CSI15:1,2009-03-10T07:00:00Z,28.8332,-90.8320,24.72,11111222 
WAVCIS,ioos:station:WAVCIS:CSI15:1,2009-03-10T08:00:00Z,28.8332,-90.8320,25.06,11111222 
WAVCIS,ioos:station:WAVCIS:CSI15:1,2009-03-10T09:00:00Z,28.8332,-90.8320,24.7,11111222 
WAVCIS,ioos:station:WAVCIS:CSI15:1,2009-03-10T10:00:00Z,28.8332,-90.8320,24.5,11111222 
WAVCIS,ioos:station:WAVCIS:CSI15:1,2009-03-10T11:00:00Z,28.8332,-90.8320,24.7,11111222 
WAVCIS,ioos:station:WAVCIS:CSI15:1,2009-03-10T12:00:00Z,28.8332,-90.8320,25.54,11111222 
WAVCIS,ioos:station:WAVCIS:CSI15:1,2009-03-10T13:00:00Z,28.8332,-90.8320,24.96,11111222 
WAVCIS,ioos:station:WAVCIS:CSI15:1,2009-03-10T14:00:00Z,28.8332,-90.8320,25.14,11111222 
WAVCIS,ioos:station:WAVCIS:CSI15:1,2009-03-10T15:00:00Z,28.8332,-90.8320,25.77,11111222 
WAVCIS,ioos:station:WAVCIS:CSI15:1,2009-03-10T16:00:00Z,28.8332,-90.8320,25.34,11111222 
WAVCIS,ioos:station:WAVCIS:CSI15:1,2009-03-10T17:00:00Z,28.8332,-90.8320,25.87,11111222 
WAVCIS,ioos:station:WAVCIS:CSI15:1,2009-03-10T18:00:00Z,28.8332,-90.8320,25.65,11111222 
WAVCIS,ioos:station:WAVCIS:CSI15:1,2009-03-10T19:00:00Z,28.8332,-90.8320,25.56,11111222 
WAVCIS,ioos:station:WAVCIS:CSI15:1,2009-03-10T20:00:00Z,28.8332,-90.8320,26.92,11111222 
WAVCIS,ioos:station:WAVCIS:CSI15:1,2009-03-10T21:00:00Z,28.8332,-90.8320,25.77,11111222 
WAVCIS,ioos:station:WAVCIS:CSI15:1,2009-03-10T22:00:00Z,28.8332,-90.8320,25.78,11111222 
WAVCIS,ioos:station:WAVCIS:CSI15:1,2009-03-10T23:00:00Z,28.8332,-90.8320,25.64,11111222 
WAVCIS,ioos:station:WAVCIS:CSI15:1,2009-03-11T00:00:00Z,28.8332,-90.8320,25.08,11111222 
WAVCIS,ioos:station:WAVCIS:CSI15:1,2009-03-11T01:00:00Z,28.8332,-90.8320,24.77,11111222 
WAVCIS,ioos:station:WAVCIS:CSI15:1,2009-03-11T02:00:00Z,28.8332,-90.8320,24.97,11111222 
WAVCIS,ioos:station:WAVCIS:CSI15:1,2009-03-11T03:00:00Z,28.8332,-90.8320,25.85,11111222 
WAVCIS,ioos:station:WAVCIS:CSI15:1,2009-03-11T04:00:00Z,28.8332,-90.8320,25.18,11111222 
WAVCIS,ioos:station:WAVCIS:CSI15:1,2009-03-11T05:00:00Z,28.8332,-90.8320,26.63,11111222 
WAVCIS,ioos:station:WAVCIS:CSI15:1,2009-03-11T06:00:00Z,28.8332,-90.8320,25.71,11111222 
WAVCIS,ioos:station:WAVCIS:CSI15:1,2009-03-11T07:00:00Z,28.8332,-90.8320,26.32,11111222 
WAVCIS,ioos:station:WAVCIS:CSI15:1,2009-03-11T08:00:00Z,28.8332,-90.8320,24.77,11111222 
WAVCIS,ioos:station:WAVCIS:CSI15:1,2009-03-11T09:00:00Z,28.8332,-90.8320,25.37,11111222 
WAVCIS,ioos:station:WAVCIS:CSI15:1,2009-03-11T10:00:00Z,28.8332,-90.8320,25.0,11111222 
WAVCIS,ioos:station:WAVCIS:CSI15:1,2009-03-11T11:00:00Z,28.8332,-90.8320,25.22,11111222 
WAVCIS,ioos:station:WAVCIS:CSI15:1,2009-03-11T12:00:00Z,28.8332,-90.8320,28.3,11111222 
WAVCIS,ioos:station:WAVCIS:CSI15:1,2009-03-11T13:00:00Z,28.8332,-90.8320,25.94,11111222 
WAVCIS,ioos:station:WAVCIS:CSI15:1,2009-03-11T14:00:00Z,28.8332,-90.8320,25.64,11111222 
WAVCIS,ioos:station:WAVCIS:CSI15:1,2009-03-11T15:00:00Z,28.8332,-90.8320,26.14,11111222 
WAVCIS,ioos:station:WAVCIS:CSI15:1,2009-03-11T16:00:00Z,28.8332,-90.8320,26.84,11111222 
WAVCIS,ioos:station:WAVCIS:CSI15:1,2009-03-11T17:00:00Z,28.8332,-90.8320,25.34,11111222 
WAVCIS,ioos:station:WAVCIS:CSI15:1,2009-03-11T18:00:00Z,28.8332,-90.8320,25.49,11111222 
WAVCIS,ioos:station:WAVCIS:CSI15:1,2009-03-11T19:00:00Z,28.8332,-90.8320,25.39,11111222 
WAVCIS,ioos:station:WAVCIS:CSI15:1,2009-03-11T20:00:00Z,28.8332,-90.8320,25.37,11111222 
WAVCIS,ioos:station:WAVCIS:CSI15:1,2009-03-11T21:00:00Z,28.8332,-90.8320,25.77,11111222 
WAVCIS,ioos:station:WAVCIS:CSI15:1,2009-03-11T22:00:00Z,28.8332,-90.8320,25.73,11111222 
WAVCIS,ioos:station:WAVCIS:CSI15:1,2009-03-11T23:00:00Z,28.8332,-90.8320,29.04,11111222 
WAVCIS,ioos:station:WAVCIS:CSI15:1,2009-03-12T00:00:00Z,28.8332,-90.8320,28.68,11111222 
WAVCIS,ioos:station:WAVCIS:CSI15:1,2009-03-12T01:00:00Z,28.8332,-90.8320,26.95,11111222 
WAVCIS,ioos:station:WAVCIS:CSI15:1,2009-03-12T02:00:00Z,28.8332,-90.8320,29.3,11111222 
WAVCIS,ioos:station:WAVCIS:CSI15:1,2009-03-12T03:00:00Z,28.8332,-90.8320,24.9,11111222 
WAVCIS,ioos:station:WAVCIS:CSI15:1,2009-03-12T04:00:00Z,28.8332,-90.8320,24.43,11111222 
WAVCIS,ioos:station:WAVCIS:CSI15:1,2009-03-12T05:00:00Z,28.8332,-90.8320,24.21,11111222 
WAVCIS,ioos:station:WAVCIS:CSI15:1,2009-03-12T06:00:00Z,28.8332,-90.8320,24.1,11111222 
WAVCIS,ioos:station:WAVCIS:CSI15:1,2009-03-12T07:00:00Z,28.8332,-90.8320,24.18,11111222 
WAVCIS,ioos:station:WAVCIS:CSI15:1,2009-03-12T08:00:00Z,28.8332,-90.8320,24.12,11111222 
WAVCIS,ioos:station:WAVCIS:CSI15:1,2009-03-12T09:00:00Z,28.8332,-90.8320,24.0,11111222 
WAVCIS,ioos:station:WAVCIS:CSI15:1,2009-03-12T10:00:00Z,28.8332,-90.8320,24.03,11111222 
WAVCIS,ioos:station:WAVCIS:CSI15:1,2009-03-12T11:00:00Z,28.8332,-90.8320,23.95,11111222 
WAVCIS,ioos:station:WAVCIS:CSI15:1,2009-03-12T12:00:00Z,28.8332,-90.8320,24.04,11111222 
WAVCIS,ioos:station:WAVCIS:CSI15:1,2009-03-12T13:00:00Z,28.8332,-90.8320,24.07,11111222 
WAVCIS,ioos:station:WAVCIS:CSI15:1,2009-03-12T14:00:00Z,28.8332,-90.8320,23.83,11111222 
WAVCIS,ioos:station:WAVCIS:CSI15:1,2009-03-12T15:00:00Z,28.8332,-90.8320,23.85,11111222 
WAVCIS,ioos:station:WAVCIS:CSI15:1,2009-03-12T16:00:00Z,28.8332,-90.8320,23.81,11111222 
WAVCIS,ioos:station:WAVCIS:CSI15:1,2009-03-12T17:00:00Z,28.8332,-90.8320,23.89,11111222 